Regional Weather Roundup
Issued by NWS Sioux Falls, SD

Home | Current Version | Previous Version | Text Only | Print | Product List | Glossary On
Versions: 1 2 3 4 5 6 7 8 9 10 11 12 13 14 15 16 17 18 19 20 21 22 23 24 25 26 27 28 29 30 31 32 33 34 35 36 37 38 39 40 41 42 43 44 45 46 47 48 49 50
000
ASUS43 KFSD 261010
RWRFSD

WEATHER ROUNDUP FOR SE SOUTH DAKOTA/SW MINNESOTA/NW IOWA
NATIONAL WEATHER SERVICE SIOUX FALLS SD
400 AM CST MON JAN 26 2015

NOTE: "FAIR" INDICATES FEW OR NO CLOUDS BELOW 12,000 FEET WITH NO
SIGNIFICANT WEATHER AND OR OBSTRUCTIONS TO VISIBILITY.


SDZ038>040-050-052>070-261100-
SOUTHEAST SOUTH DAKOTA

CITY           SKY/WX    TMP DP  RH WIND       PRES   REMARKS
CHAMBERLAIN    MOCLDY    38  32  79 W14       29.86S
HURON          PTCLDY    33  29  85 SW9       29.77F WCI  25
MADISON        FAIR      32  32 100 SW16G22   29.77F WCI  21
MITCHELL       CLEAR     37  31  78 W13       29.82F
SIOUX FALLS    PTCLDY    32  30  92 SW12      29.79F WCI  23
WINNER         FAIR      44  33  65 W13       29.89S
YANKTON        CLEAR     34  28  80 SW8       29.85F WCI  27
$$

MNZ071-072-080-081-089-090-097-098-261100-
SOUTHWEST MINNESOTA

CITY           SKY/WX    TMP DP  RH WIND       PRES   REMARKS
FAIRMONT       CLOUDY    30  27  86 SW17      29.82F WCI  18
JACKSON        CLOUDY    32  30  93 S12       29.85F WCI  23
LUVERNE        MOCLDY    32  32 100 S8        29.83F WCI  25
MARSHALL       CLOUDY    34  30  86 SW25      29.72F WCI  21
MONTEVIDEO     CLOUDY    34  34 100 SW16G23   29.72F WCI  23
PIPESTONE      MOCLDY    34  32  93 SW18      29.75F WCI  23
REDWOOD FALLS  CLOUDY    33  30  88 S24G30    29.72F WCI  20
TRACY          LGT RAIN  34  32  93 S15G23    29.76F WCI  24
WINDOM         CLOUDY    32  30  93 S9        29.83F WCI  24
WORTHINGTON    CLOUDY    32  28  86 SW16      29.83F WCI  21
$$

IAZ001>003-012>014-020>022-031-032-NEZ013-014-SDZ071-261100-
NORTHWEST IOWA

CITY           SKY/WX    TMP DP  RH WIND       PRES   REMARKS
CHEROKEE       CLOUDY    32  32 100 S9        29.90F WCI  24
DENISON        PTCLDY    30  30 100 SW5       29.94R WCI  25
ESTHERVILLE    CLOUDY    30  29  96 S10       29.87F WCI  21
LE MARS        CLEAR     32  32 100 S9        29.87F WCI  24
ORANGE CITY    PTCLDY    32  30  93 S10       29.85F WCI  24
SHELDON        MOCLDY    32  32 100 S13       29.83F WCI  22
SIOUX CITY     CLEAR     29  26  89 E7        29.91F WCI  22
SPENCER        CLOUDY    33  30  88 SW16      29.85F WCI  23
STORM LAKE     CLOUDY    32  30  93 SW10      29.92S WCI  24
$$

ABBREVIATIONS USED IN REMARKS
   TC - TEMPERATURE IN CELSIUS
  WCI - WIND CHILL INDEX
   HX - HEAT INDEX
  VSB - VISIBILITY



USA.gov is the U.S. government's official web portal to all federal, state and local government web resources and services.